EJU455 LIMC-LIEO

Flight info

Callsign EJU455
Flight time 0h 56m
Altitude 39000
Route ROBAS DCT EKPAL DCT TINKU DCT GOVGO DCT BATOX
Aircraft A319/M-SDE3FGHIRWY/LB1

Departure

Time 2026-05-07 20:00
Airport Milan Malpensa International Airport (LIMC)

Arrival

Time 2026-05-07 20:56
Airport Olbia Costa Smeralda Airport (LIEO)
Time Latitude Longitude Altitude Speed Heading
2026-05-07 19:44 45.64520 8.72350 759 ft 0 kts 350°
2026-05-07 19:47 45.64517 8.72351 759 ft 3 kts 350°
2026-05-07 19:48 45.64492 8.72357 759 ft 4 kts 354°
2026-05-07 19:48 45.64465 8.72358 754 ft 4 kts
2026-05-07 19:48 45.64442 8.72347 759 ft 4 kts 57°
2026-05-07 19:48 45.64439 8.72338 759 ft 0 kts 79°
2026-05-07 19:52 45.64439 8.72342 759 ft 2 kts 79°
2026-05-07 19:52 45.64443 8.72374 755 ft 5 kts 79°
2026-05-07 19:52 45.64439 8.72408 755 ft 6 kts 115°
2026-05-07 19:53 45.64391 8.72435 756 ft 10 kts 169°
2026-05-07 19:53 45.64310 8.72459 755 ft 13 kts 168°
2026-05-07 19:53 45.64218 8.72484 756 ft 15 kts 169°
2026-05-07 19:53 45.64108 8.72514 757 ft 16 kts 169°
2026-05-07 19:54 45.63995 8.72555 758 ft 17 kts 168°
2026-05-07 19:54 45.63877 8.72585 759 ft 17 kts 169°
2026-05-07 19:54 45.63757 8.72620 757 ft 18 kts 169°
2026-05-07 19:54 45.63633 8.72655 759 ft 18 kts 169°
2026-05-07 19:55 45.63505 8.72691 758 ft 19 kts 169°
2026-05-07 19:55 45.63370 8.72729 759 ft 20 kts 169°
2026-05-07 19:55 45.63231 8.72767 755 ft 21 kts 169°
2026-05-07 19:55 45.63090 8.72806 759 ft 21 kts 169°
2026-05-07 19:56 45.62944 8.72846 756 ft 21 kts 169°
2026-05-07 19:56 45.62796 8.72886 756 ft 22 kts 169°
2026-05-07 19:56 45.62644 8.72928 758 ft 22 kts 169°
2026-05-07 19:56 45.62490 8.72971 759 ft 23 kts 169°
2026-05-07 19:57 45.62335 8.73014 757 ft 23 kts 169°
2026-05-07 19:57 45.62171 8.73058 757 ft 24 kts 169°
2026-05-07 19:57 45.62005 8.73104 760 ft 24 kts 169°
2026-05-07 19:57 45.61837 8.73150 759 ft 25 kts 169°
2026-05-07 19:58 45.61738 8.73210 757 ft 13 kts 124°
2026-05-07 19:58 45.61686 8.73323 757 ft 14 kts 124°
2026-05-07 19:58 45.61631 8.73444 760 ft 15 kts 123°
2026-05-07 19:58 45.61587 8.73579 756 ft 15 kts 96°
2026-05-07 19:59 45.61618 8.73725 755 ft 15 kts 38°
2026-05-07 19:59 45.61715 8.73712 757 ft 15 kts 349°
2026-05-07 19:59 45.61862 8.73671 757 ft 48 kts 349°
2026-05-07 19:59 45.62452 8.73508 761 ft 122 kts 349°
2026-05-07 20:00 45.63481 8.73224 832 ft 170 kts 349°
2026-05-07 20:00 45.64629 8.72948 1527 ft 170 kts 354°
2026-05-07 20:00 45.65794 8.73335 2045 ft 185 kts 33°
2026-05-07 20:00 45.66618 8.74880 2396 ft 208 kts 72°
2026-05-07 20:01 45.66933 8.76924 3102 ft 218 kts 77°
2026-05-07 20:01 45.67558 8.78941 3952 ft 231 kts 54°
2026-05-07 20:01 45.68664 8.80773 4681 ft 248 kts 50°
2026-05-07 20:01 45.69501 8.82931 5523 ft 256 kts 79°
2026-05-07 20:02 45.69354 8.85447 6407 ft 258 kts 112°
2026-05-07 20:02 45.68387 8.87614 7325 ft 261 kts 130°
2026-05-07 20:02 45.67151 8.89598 8109 ft 271 kts 133°
2026-05-07 20:02 45.65850 8.91603 8965 ft 278 kts 133°
2026-05-07 20:03 45.64533 8.93678 9844 ft 287 kts 131°
2026-05-07 20:03 45.63224 8.95838 10581 ft 293 kts 130°
2026-05-07 20:03 45.61907 8.98106 11383 ft 298 kts 130°
2026-05-07 20:03 45.60588 9.00413 12228 ft 303 kts 130°
2026-05-07 20:04 45.59247 9.02775 13017 ft 309 kts 130°
2026-05-07 20:04 45.57889 9.05184 13814 ft 314 kts 130°
2026-05-07 20:04 45.56508 9.07634 14539 ft 319 kts 130°
2026-05-07 20:04 45.55111 9.10113 15279 ft 323 kts 131°
2026-05-07 20:05 45.53693 9.12620 16035 ft 326 kts 131°
2026-05-07 20:05 45.52257 9.15139 16815 ft 329 kts 132°
2026-05-07 20:05 45.50548 9.17282 17511 ft 329 kts 152°
2026-05-07 20:05 45.48424 9.18641 17814 ft 345 kts 162°
2026-05-07 20:06 45.46106 9.19866 17957 ft 366 kts 163°
2026-05-07 20:06 45.43663 9.21104 18328 ft 378 kts 163°
2026-05-07 20:06 45.41160 9.22359 18867 ft 383 kts 163°
2026-05-07 20:06 45.38668 9.23618 19467 ft 386 kts 163°
2026-05-07 20:07 45.36095 9.24928 20126 ft 389 kts 163°
2026-05-07 20:07 45.33569 9.26226 20757 ft 393 kts 163°
2026-05-07 20:07 45.30995 9.27553 21373 ft 394 kts 163°
2026-05-07 20:07 45.28400 9.28899 21950 ft 399 kts 163°
2026-05-07 20:08 45.25777 9.30260 22542 ft 403 kts 163°
2026-05-07 20:08 45.23130 9.31630 23100 ft 407 kts 163°
2026-05-07 20:08 45.20459 9.33009 23651 ft 410 kts 163°
2026-05-07 20:08 45.17760 9.34394 24140 ft 413 kts 164°
2026-05-07 20:09 45.15054 9.35774 24632 ft 414 kts 164°
2026-05-07 20:09 45.12329 9.37166 25075 ft 418 kts 164°
2026-05-07 20:09 45.09579 9.38574 25537 ft 421 kts 165°
2026-05-07 20:10 45.04007 9.41426 26510 ft 428 kts 165°
2026-05-07 20:10 45.01201 9.42862 26977 ft 431 kts 165°
2026-05-07 20:10 44.98372 9.44305 27429 ft 434 kts 166°
2026-05-07 20:10 44.95528 9.45751 27858 ft 436 kts 166°
2026-05-07 20:11 44.92662 9.47200 28303 ft 439 kts 166°
2026-05-07 20:11 44.89803 9.48652 28712 ft 443 kts 166°
2026-05-07 20:11 44.86896 9.50136 29149 ft 445 kts 166°
2026-05-07 20:11 44.83962 9.51630 29566 ft 448 kts 166°
2026-05-07 20:12 44.81022 9.53118 29948 ft 451 kts 167°
2026-05-07 20:12 44.78054 9.54611 30265 ft 455 kts 168°
2026-05-07 20:12 44.75062 9.56120 30554 ft 458 kts 168°
2026-05-07 20:12 44.72058 9.57641 30836 ft 461 kts 168°
2026-05-07 20:13 44.69033 9.59167 31180 ft 462 kts 168°
2026-05-07 20:13 44.65997 9.60696 31593 ft 462 kts 168°
2026-05-07 20:13 44.62979 9.62219 32106 ft 460 kts 168°
2026-05-07 20:13 44.59973 9.63743 32579 ft 459 kts 168°
2026-05-07 20:14 44.56972 9.65259 33077 ft 457 kts 169°
2026-05-07 20:14 44.54020 9.66660 33550 ft 448 kts 175°
2026-05-07 20:14 44.50996 9.67329 34011 ft 436 kts 182°
2026-05-07 20:14 44.47986 9.67808 34428 ft 435 kts 182°
2026-05-07 20:15 44.44986 9.68275 34818 ft 433 kts 182°
2026-05-07 20:15 44.41993 9.68731 35183 ft 433 kts 182°
2026-05-07 20:15 44.38996 9.69186 35575 ft 433 kts 182°
2026-05-07 20:15 44.36007 9.69642 35956 ft 432 kts 182°
2026-05-07 20:16 44.33016 9.70098 36316 ft 432 kts 182°
2026-05-07 20:16 44.30026 9.70552 36689 ft 432 kts 181°
2026-05-07 20:16 44.27046 9.71010 37022 ft 431 kts 181°
2026-05-07 20:16 44.24063 9.71470 37372 ft 431 kts 181°
2026-05-07 20:17 44.21084 9.71928 37701 ft 431 kts 181°
2026-05-07 20:17 44.18108 9.72385 38056 ft 429 kts 181°
2026-05-07 20:17 44.15140 9.72838 38418 ft 429 kts 181°
2026-05-07 20:17 44.12188 9.73289 38754 ft 427 kts 181°
2026-05-07 20:18 44.09229 9.73742 38951 ft 428 kts 181°
2026-05-07 20:18 44.03305 9.74642 39036 ft 428 kts 181°
2026-05-07 20:19 43.97540 9.75516 39026 ft 426 kts 181°
2026-05-07 20:19 43.91686 9.76407 39026 ft 425 kts 181°
2026-05-07 20:20 43.85820 9.77305 39023 ft 426 kts 181°
2026-05-07 20:20 43.79976 9.78200 39013 ft 426 kts 181°
2026-05-07 20:21 43.74240 9.79056 39016 ft 426 kts 181°
2026-05-07 20:21 43.68349 9.79933 39023 ft 426 kts 181°
2026-05-07 20:22 43.62743 9.80772 39022 ft 426 kts 181°
2026-05-07 20:22 43.56849 9.81663 39007 ft 426 kts 181°
2026-05-07 20:23 43.50991 9.82538 39017 ft 426 kts 181°
2026-05-07 20:23 43.45086 9.83416 39009 ft 426 kts 181°
2026-05-07 20:24 43.39227 9.84290 39001 ft 427 kts 181°
2026-05-07 20:24 43.33320 9.85162 39014 ft 427 kts 181°
2026-05-07 20:25 43.27411 9.86042 39025 ft 427 kts 181°
2026-05-07 20:25 43.21624 9.85773 39030 ft 410 kts 198°
2026-05-07 20:26 43.16052 9.84133 39011 ft 410 kts 198°
2026-05-07 20:26 43.13256 9.83298 38866 ft 410 kts 198°
2026-05-07 20:26 43.10468 9.82469 38635 ft 409 kts 198°
2026-05-07 20:26 43.07688 9.81648 38347 ft 408 kts 198°
2026-05-07 20:27 43.04953 9.80843 38074 ft 408 kts 198°
2026-05-07 20:27 43.02182 9.80025 37795 ft 407 kts 198°
2026-05-07 20:27 42.99416 9.79209 37496 ft 407 kts 198°
2026-05-07 20:27 42.96644 9.78393 37220 ft 407 kts 198°
2026-05-07 20:28 42.93878 9.77581 36956 ft 407 kts 198°
2026-05-07 20:28 42.91110 9.76773 36682 ft 407 kts 198°
2026-05-07 20:28 42.88343 9.75966 36420 ft 407 kts 198°
2026-05-07 20:28 42.85574 9.75156 36161 ft 406 kts 198°
2026-05-07 20:29 42.82813 9.74343 35906 ft 406 kts 198°
2026-05-07 20:29 42.80054 9.73530 35645 ft 406 kts 198°
2026-05-07 20:29 42.77294 9.72718 35393 ft 406 kts 198°
2026-05-07 20:29 42.74534 9.71909 35146 ft 406 kts 198°
2026-05-07 20:30 42.71773 9.71098 34900 ft 406 kts 198°
2026-05-07 20:30 42.69012 9.70292 34654 ft 406 kts 197°
2026-05-07 20:30 42.66252 9.69491 34412 ft 406 kts 197°
2026-05-07 20:30 42.63493 9.68692 34179 ft 405 kts 197°
2026-05-07 20:31 42.60729 9.67894 33901 ft 406 kts 197°
2026-05-07 20:31 42.57993 9.67099 33638 ft 409 kts 197°
2026-05-07 20:31 42.55213 9.66286 33358 ft 409 kts 197°
2026-05-07 20:31 42.52410 9.65481 33081 ft 412 kts 196°
2026-05-07 20:32 42.49600 9.64671 32821 ft 413 kts 196°
2026-05-07 20:32 42.46777 9.63858 32553 ft 415 kts 196°
2026-05-07 20:32 42.43948 9.63035 32295 ft 416 kts 196°
2026-05-07 20:32 42.41102 9.62210 32026 ft 420 kts 196°
2026-05-07 20:33 42.38254 9.61379 31768 ft 417 kts 196°
2026-05-07 20:33 42.35423 9.60552 31475 ft 415 kts 196°
2026-05-07 20:33 42.32590 9.59733 31222 ft 415 kts 196°
2026-05-07 20:33 42.29784 9.58933 31025 ft 412 kts 195°
2026-05-07 20:34 42.26987 9.58129 30988 ft 411 kts 196°
2026-05-07 20:34 42.21427 9.56516 30981 ft 412 kts 196°
2026-05-07 20:35 42.15800 9.54891 30994 ft 413 kts 196°
2026-05-07 20:35 42.10138 9.53300 30996 ft 417 kts 195°
2026-05-07 20:35 42.07297 9.52511 30766 ft 413 kts 194°
2026-05-07 20:36 42.04494 9.51728 30522 ft 411 kts 194°
2026-05-07 20:36 42.01702 9.50942 30277 ft 411 kts 195°
2026-05-07 20:36 41.98898 9.50143 29985 ft 413 kts 194°
2026-05-07 20:36 41.96108 9.49340 29721 ft 410 kts 195°
2026-05-07 20:37 41.93318 9.48542 29494 ft 409 kts 194°
2026-05-07 20:37 41.90547 9.47755 29254 ft 405 kts 195°
2026-05-07 20:37 41.87802 9.46962 29044 ft 404 kts 196°
2026-05-07 20:37 41.85057 9.46163 28832 ft 405 kts 194°
2026-05-07 20:38 41.82297 9.45357 28628 ft 409 kts 196°
2026-05-07 20:38 41.79531 9.44564 28397 ft 405 kts 195°
2026-05-07 20:38 41.76777 9.43786 28182 ft 404 kts 194°
2026-05-07 20:38 41.74028 9.43014 27931 ft 403 kts 194°
2026-05-07 20:39 41.71292 9.42246 27640 ft 402 kts 194°
2026-05-07 20:39 41.68558 9.41480 27233 ft 400 kts 194°
2026-05-07 20:39 41.65840 9.40717 26797 ft 399 kts 194°
2026-05-07 20:39 41.63160 9.39962 26369 ft 397 kts 193°
2026-05-07 20:40 41.60466 9.39203 25953 ft 397 kts 194°
2026-05-07 20:40 41.57772 9.38446 25535 ft 392 kts 193°
2026-05-07 20:40 41.55104 9.37698 25125 ft 391 kts 194°
2026-05-07 20:40 41.52446 9.36956 24747 ft 390 kts 194°
2026-05-07 20:41 41.49810 9.36210 24293 ft 384 kts 193°
2026-05-07 20:41 41.47188 9.35484 23845 ft 386 kts 193°
2026-05-07 20:41 41.44565 9.34755 23360 ft 384 kts 193°
2026-05-07 20:41 41.41958 9.34022 22817 ft 382 kts 193°
2026-05-07 20:42 41.40240 9.33537 22457 ft 381 kts 193°
2026-05-07 20:42 41.36776 9.32567 21743 ft 379 kts 193°
2026-05-07 20:42 41.34208 9.31851 21202 ft 374 kts 193°
2026-05-07 20:42 41.31688 9.31148 20671 ft 367 kts 192°
2026-05-07 20:43 41.29204 9.30450 20148 ft 360 kts 192°
2026-05-07 20:43 41.27591 9.29996 19811 ft 356 kts 192°
2026-05-07 20:43 41.24419 9.29109 19143 ft 348 kts 192°
2026-05-07 20:43 41.22065 9.28456 18650 ft 343 kts 192°
2026-05-07 20:44 41.19741 9.27810 18151 ft 338 kts 192°
2026-05-07 20:44 41.17453 9.27175 17583 ft 333 kts 192°
2026-05-07 20:44 41.15188 9.26547 17011 ft 331 kts 192°
2026-05-07 20:44 41.13670 9.26124 16633 ft 329 kts 192°
2026-05-07 20:45 41.10700 9.25309 15896 ft 331 kts 192°
2026-05-07 20:45 41.09200 9.24891 15535 ft 330 kts 191°
2026-05-07 20:45 41.06979 9.24271 15000 ft 321 kts 192°
2026-05-07 20:45 41.04814 9.23663 14474 ft 315 kts 191°
2026-05-07 20:46 41.02683 9.23071 13957 ft 311 kts 191°
2026-05-07 20:46 41.00591 9.22496 13384 ft 304 kts 191°
2026-05-07 20:46 40.98533 9.21931 12804 ft 301 kts 191°
2026-05-07 20:46 40.96504 9.21380 12240 ft 295 kts 191°
2026-05-07 20:47 40.94490 9.20834 11688 ft 293 kts 190°
2026-05-07 20:47 40.92490 9.20282 11148 ft 295 kts 190°
2026-05-07 20:47 40.90478 9.19723 10597 ft 294 kts 190°
2026-05-07 20:47 40.88523 9.19178 10074 ft 288 kts 190°
2026-05-07 20:48 40.86585 9.18642 9529 ft 281 kts 190°
2026-05-07 20:48 40.84705 9.18123 9053 ft 272 kts 190°
2026-05-07 20:48 40.82876 9.17620 8616 ft 264 kts 190°
2026-05-07 20:48 40.81106 9.17131 8205 ft 255 kts 190°
2026-05-07 20:49 40.79395 9.16657 7802 ft 249 kts 189°
2026-05-07 20:49 40.77708 9.16620 7411 ft 239 kts 166°
2026-05-07 20:49 40.76223 9.17504 7023 ft 234 kts 142°
2026-05-07 20:49 40.75143 9.19127 6390 ft 242 kts 118°
2026-05-07 20:50 40.74720 9.21248 5987 ft 237 kts 92°
2026-05-07 20:50 40.75014 9.23335 5681 ft 229 kts 68°
2026-05-07 20:50 40.75839 9.25105 5370 ft 224 kts 57°
2026-05-07 20:50 40.76708 9.26739 5040 ft 218 kts 57°
2026-05-07 20:51 40.77571 9.28371 4740 ft 209 kts 57°
2026-05-07 20:51 40.78385 9.29913 4388 ft 202 kts 56°
2026-05-07 20:51 40.79160 9.31383 4084 ft 192 kts 57°
2026-05-07 20:51 40.79904 9.32791 3789 ft 182 kts 57°
2026-05-07 20:52 40.80600 9.34108 3516 ft 168 kts 57°
2026-05-07 20:52 40.81250 9.35344 3273 ft 160 kts 57°
2026-05-07 20:52 40.81868 9.36522 3036 ft 153 kts 56°
2026-05-07 20:52 40.82466 9.37659 2828 ft 149 kts 56°
2026-05-07 20:53 40.83054 9.38761 2565 ft 145 kts 56°
2026-05-07 20:53 40.83624 9.39842 2344 ft 141 kts 57°
2026-05-07 20:53 40.84172 9.40913 2096 ft 142 kts 57°
2026-05-07 20:53 40.84725 9.41992 1864 ft 142 kts 56°
2026-05-07 20:54 40.85275 9.43076 1626 ft 142 kts 56°
2026-05-07 20:54 40.85839 9.44151 1422 ft 142 kts 54°
2026-05-07 20:54 40.86424 9.45197 1237 ft 141 kts 53°
2026-05-07 20:54 40.86989 9.46237 994 ft 139 kts 54°
2026-05-07 20:55 40.87525 9.47305 743 ft 139 kts 53°
2026-05-07 20:55 40.88094 9.48345 545 ft 140 kts 54°
2026-05-07 20:55 40.88628 9.49405 328 ft 140 kts 55°
2026-05-07 20:55 40.89197 9.50475 129 ft 141 kts 56°
2026-05-07 20:56 40.89740 9.51521 39 ft 130 kts 55°
2026-05-07 20:56 40.90158 9.52320 33 ft 82 kts 55°
2026-05-07 20:56 40.90392 9.52768 28 ft 41 kts 55°
2026-05-07 20:56 40.90512 9.52924 26 ft 14 kts
2026-05-07 20:57 40.90577 9.52857 29 ft 13 kts 274°
2026-05-07 20:57 40.90560 9.52737 29 ft 14 kts 252°
2026-05-07 20:57 40.90517 9.52614 30 ft 16 kts 236°
2026-05-07 20:57 40.90453 9.52492 30 ft 17 kts 235°
2026-05-07 20:58 40.90383 9.52359 31 ft 18 kts 235°
2026-05-07 20:58 40.90308 9.52218 33 ft 19 kts 235°
2026-05-07 20:58 40.90232 9.52072 34 ft 20 kts 235°
2026-05-07 20:58 40.90168 9.51947 35 ft 14 kts 237°
2026-05-07 20:59 40.90146 9.51904 35 ft 0 kts 238°
2026-05-07 20:59 40.90150 9.51898 32 ft 3 kts 290°
2026-05-07 20:59 40.90174 9.51877 33 ft 6 kts 313°
2026-05-07 20:59 40.90223 9.51801 36 ft 12 kts 313°
2026-05-07 21:00 40.90207 9.51730 36 ft 5 kts 230°
2026-05-07 21:00 40.90204 9.51709 34 ft 1 kts 297°
2026-05-07 21:00 40.90213 9.51691 35 ft 4 kts 303°
2026-05-07 21:00 40.90228 9.51671 36 ft 3 kts 322°
2026-05-07 21:01 40.90245 9.51655 34 ft 0 kts 326°